Location: Fort Wayne
(41.1310°N, 85.1290°W)
Time: 07:03:40
(UTC-04:00)

Tiros 1 despin weight - Visible Passes

Search period start: 07 July 2015 00:00
Search period end: 17 July 2015 00:00
Orbit: 597 x 647 km, 48.2° (Epoch: 06 July)

Date Brightness Start Highest point End Pass type
(mag) Time Alt. Az. Time Alt. Az. Time Alt. Az.
07 Jul ? 05:37:33 10° S 05:41:17 24° SE 05:45:05 10° E visible
09 Jul ? 04:33:13 12° SSE 04:35:38 17° SE 04:38:46 10° E visible
10 Jul ? 04:50:21 17° SSW 04:53:18 33° SE 04:57:32 10° ENE visible
11 Jul ? 03:30:16 12° SE 03:30:16 12° SE 03:31:54 10° ESE visible
11 Jul ? 05:07:25 16° SW 05:11:04 61° SE 05:15:44 10° ENE visible
12 Jul ? 03:47:17 24° SE 03:47:37 24° SE 03:51:26 10° E visible
12 Jul ? 05:24:25 11° WSW 05:28:58 80° NNW 05:33:42 10° ENE visible
13 Jul ? 04:04:14 38° S 04:05:19 45° SE 04:09:50 10° ENE visible
13 Jul ? 05:42:23 10° W 05:47:01 53° NNW 05:51:38 10° ENE visible
14 Jul ? 02:44:01 14° ESE 02:44:01 14° ESE 02:45:05 10° E visible
14 Jul ? 04:21:08 34° SW 04:23:09 81° SSE 04:27:53 10° ENE visible
15 Jul ? 03:00:52 28° ESE 03:00:52 28° ESE 03:03:50 10° ENE visible
15 Jul ? 04:37:59 21° WSW 04:41:07 64° NNW 04:45:48 10° ENE visible
16 Jul ? 03:17:41 59° SE 03:17:41 59° SE 03:22:01 10° ENE visible
16 Jul ? 04:54:48 11° W 04:59:12 45° NNW 05:03:45 10° ENE visible
